Regional Weather Roundup
Issued by NWS

Home | Current Version | Previous Version | Text Only | Print | Product List | Glossary On
Versions: 1 2 3 4 5 6 7 8 9 10 11 12 13 14 15 16 17 18 19 20 21 22 23 24 25 26 27 28 29 30 31 32 33 34 35 36 37 38 39 40 41 42 43 44 45 46 47 48 49 50
000
ASCA44 KEWX 221320
RWRMX

LATIN AMERICA AND CARIBBEAN REGIONAL WEATHER ROUNDUP
NATIONAL WEATHER SERVICE AUSTIN/SAN ANTONIO TX
700 AM CST SUN JAN 22 2017

NOTE: "FAIR" INDICATED FEW OR NO CLOUDS BELOW 12,000 FEET WITH NO
SIGNIFICANT WEATHER AND/OR OBSTRUCTIONS TO VISIBILITY.

BAJA CALIFORNIA

CITY           SKY/WX    TMP DP  RH WIND       PRES   REMARKS
LA PAZ         CLEAR     46  45  93 S3        30.12
S.J. DEL CABO  CLEAR     54  48  82 CALM      30.10
TIJUANA        PTCLDY    50  43  76 CALM      30.11

NORTHWESTERN MEXICO

CITY           SKY/WX    TMP DP  RH WIND       PRES   REMARKS
CULIACAN       CLEAR     54  50  87 CALM      30.05
DURANGO        CLEAR     39  21  48 CALM      30.20
HERMOSILLO     CLEAR     50  46  87 NE5       30.16  WCI  48
CD. JUAREZ     CLEAR     39  32  75 NW7       30.04  WCI  34
OBREGON        PTCLDY    46  46 100 N2        30.08

NORTHEASTERN MEXICO

CITY           SKY/WX    TMP DP  RH WIND       PRES   REMARKS
MATAMOROS      CLEAR     59  41  51 W6        29.82
MONCLOVA         N/A    N/A N/A N/A MISG        N/A
MONTERREY      CLEAR     55  39  54 S10       29.86R
REYNOSA        CLEAR     59  37  44 NW9       29.80
SALTILLO       CLEAR     57  32  38 S13       30.11S
TORREON        CLEAR     52  27  37 CALM      30.08
CD. VICTORIA   CLEAR     57  37  47 NW9       29.87

WESTERN MEXICO

CITY           SKY/WX    TMP DP  RH WIND       PRES   REMARKS
AGUASCALIENTES CLEAR     39  25  56 SE3       30.24R
COLIMA         CLEAR     63  48  59 N12       30.10
DEL BAJIO      CLEAR     37  25  60 CALM      30.28F
GUADALAJARA    CLEAR     34  27  75 CALM      30.21
MAZATLAN       CLEAR     48  48 100 CALM      30.06R
P. VALLARTA    CLEAR     57  57 100 NE2       30.03R
URUAPAN        CLEAR     57  43  58 W9        30.18
ZACATECAS      CLEAR     34  12  40 S6        30.24  WCI  29

CENTRAL MEXICO

CITY           SKY/WX    TMP DP  RH WIND       PRES   REMARKS
CUERNAVACA     CLEAR     57  37  47 N7        30.13
MEXICO CITY    CLEAR     46  36  66 CALM      30.31R
MORELIA        CLEAR     39  37  93 CALM      30.26
POZA RICA      CLEAR     68  66  94 CALM      29.76
PUEBLA         CLEAR     37  30  75 NW6       30.29  WCI  33
QUERETARO      CLEAR     43  27  52 NW5       30.28F WCI  40
S. LUIS POTOSI CLEAR     50  10  20 W9        30.16  WCI  46
TAMPICO        CLEAR     72  46  40 N23G35    29.78R
TOLUCA         CLEAR     34  30  86 W5        30.37  WCI  30

SOUTHERN MEXICO

CITY           SKY/WX    TMP DP  RH WIND       PRES   REMARKS
ACAPULCO       CLEAR     73  68  83 NW7       29.91S
B. DE HUATULCO PTCLDY    72  63  73 W7        29.90
OAXACA         CLEAR     41  36  81 CALM      30.17R
P. ESCONDIDO   CLEAR     75  63  64 N7        29.98R
VERACRUZ       CLEAR     66  64  94 W5        29.73R
ZIHUATANEJO    CLEAR     64  59  82 NE5       29.93

YUCATAN PENINSULA

CITY           SKY/WX    TMP DP  RH WIND       PRES   REMARKS
CAMPECHE       CLEAR     72  70  94 SE7       29.71R
CANCUN         PTCLDY    79  73  83 SE16      29.76R
CHETUMAL       MOCLDY    72  70  94 CALM      29.75
CD. DEL CARMEN CLEAR     72  70  94 CALM      29.72
COZUMEL        PTCLDY    79  75  89 S12       29.75R
MERIDA         CLEAR     70  68  94 SE9       29.73R
MINATITLAN     CLEAR     77  68  73 NW9       29.75
TAPACHULA      PTCLDY    70  68  94 CALM      29.90R
TUX. GUTIERREZ MOCLDY    66  61  82 CALM      29.94F
VILLAHERMOSA   CLEAR     64  64 100 CALM      29.75R

CENTRAL AMERICA

CITY           SKY/WX    TMP DP  RH WIND       PRES   REMARKS
BELIZE CITY    PTCLDY    72  72 100 CALM      29.74R
MANAGUA        MOSUNNY   68  64  88 S5        29.89S

CARIBBEAN

CITY           SKY/WX    TMP DP  RH WIND       PRES   REMARKS
ARUBA          MOSUNNY   81  70  69 E12       29.97R
CURACAO        MOSUNNY   81  72  74 E8        30.00R
KINGSTON       MOSUNNY   79  64  61 E7        29.97R
NASSAU         MOSUNNY   73  68  83 S10       29.92R
SAN JUAN       MOSUNNY   77  68  73 CALM      30.03R
SANTO DOMINGO  MOSUNNY   72  66  83 NE5       30.00R
ST. CROIX      MOSUNNY   79  66  65 N6        30.03R
ST. KITTS      MOSUNNY   79  66  65 CALM      30.00R
ST. MAARTEN    PTSUNNY   79  68  69 VRB1      30.00S
ST. THOMAS     MOSUNNY   79  63  57 E7        30.02R

$$




USA.gov is the U.S. government's official web portal to all federal, state and local government web resources and services.